Location: Cucq
(50.4773°N, 1.6202°E)
Time: 16:16:11
(UTC+00:00)

ERS-2 - Pass Details

Date: 07 August 2020
Orbit: 493 x 498 km, 98.6° (Epoch: 24 September)

Event Time Altitude Azimuth Distance (km) Brightness Sun altitude
Rises 03:30:40 0° 167° (SSE) 2,567 5.5 -8.8°
Reaches altitude 10° 03:32:43 10° 169° (S) 1,691 4.5 -8.5°
Maximum altitude 03:36:21 76° 255° (WSW) 518 2.0 -8.1°
Drops below altitude 10° 03:40:02 10° 342° (NNW) 1,709 5.1 -7.6°
Sets 03:42:07 0° 344° (NNW) 2,598 6.1 -7.3°
